Terminal Aerodrome Forecast
Issued by NWS Mt. Holly, NJ

Home | Current Version | Previous Version | Text Only | Print | Product List | Glossary On
Versions: 1 2 3 4 5 6 7 8 9 10 11 12 13 14 15 16 17 18 19 20 21 22 23 24 25 26 27 28 29
000
FTUS41 KPHI 050402 AAA
TAFTTN
TAF AMD
KTTN 050402Z 0504/0524 28004KT 4SM -RA BR SCT030 OVC050
     FM050600 35009KT 3SM -RAPL OVC012
     FM050800 36010G17KT 3/4SM -SN OVC007
     FM052000 36010G17KT P6SM OVC020=

USA.gov is the U.S. government's official web portal to all federal, state and local government web resources and services.